Tracking 31027 objects as of 19-Jul-2025
HD Live streaming from Space Station
objects crossing your sky now

STARLINK-6360

Track STARLINK-6360 now!
10-day predictions
STARLINK-6360 is classified as:


NORAD ID: 57235
Int'l Code: 2023-094T
Perigee: 565.2 km
Apogee: 567.1 km
Inclination: 43.0 °
Period: 95.8 minutes
Semi major axis: 6937 km
RCS: Unknown
Launch date: July 7, 2023
Source: United States (US)
Launch site: AIR FORCE WESTERN TEST RANGE (AFWTR)
Your satellite tracking list
SL-8 DEB
Track 1 satellite(s)




NASA's NSSDC Master Catalog

Two Line Element Set (TLE):
1 57235U 23094T   25199.75950914  .00003061  00000-0  24139-3 0  9998
2 57235  43.0027 221.1969 0001361 276.1425  83.9262 15.02561513112113
Source of the keplerian elements: AFSPC